Wetbulb
45.82 45.95 45.64 46.07 46.53 46.53 45.66 46.62 47.51 49.30 50.08 50.00 51.07 51.86 52.84 55.02 56.81 57.29 57.08 55.24 53.94 54.09 53.87 51.36 50.85 52.01 51.33 52.89 53.31 52.69 51.37 50.76 47.33 50.55 50.07 49.70 49.26 49.27 49.74 50.31 50.45 49.40 49.79
45.53 45.50 45.48 46.04 46.20 45.53 44.62 45.22 47.65 48.15 49.01 49.87 50.62 50.83 51.46 52.61 55.51 55.98 55.57 54.59 52.22 53.15 51.85 50.39 49.88 52.29 51.36 52.83 51.95 51.73 50.11 50.96 48.66 46.54 48.29 47.98 48.27 48.50 48.92 49.04 49.92 50.15 49.32
44.51 43.82 43.81 43.62 43.83 44.45 44.09 45.17 47.65 48.20 49.60 50.94 52.34 51.43 51.43 52.75 54.03 52.57 51.97 51.95 51.66 51.49 52.55 52.27 51.54 51.59 51.95 52.03 51.13 49.77 49.04 48.39 47.98 46.27 45.62 47.53 47.90 48.06 48.05 49.45 49.48 48.56 50.10
43.57 43.11 42.78 42.97 43.77 43.98 44.50 46.76 48.67 49.42 48.87 47.73 49.81 51.95 53.16 53.12 53.44 51.99 51.72 51.60 51.49 51.20 51.18 53.10 51.41 51.05 50.27 49.19 46.42 45.81 46.70 47.76 47.67 45.07 45.57 45.98 47.13 48.61 48.42 46.95 46.43 48.31 47.82
43.48 43.32 43.25 43.83 44.76 44.69 45.17 45.68 47.05 47.83 48.02 48.29 47.93 48.11 48.95 50.22 50.51 49.52 49.24 49.34 50.67 51.67 52.48 52.50 51.15 49.27 48.66 48.26 46.22 45.75 46.46 45.61 45.69 44.88 45.45 47.02 46.09 45.72 45.40 46.37 45.52 46.80 47.54
42.91 42.90 43.74 44.12 44.62 45.61 46.22 46.88 47.53 47.93 47.65 47.75 47.09 47.27 47.49 49.27 46.20 46.66 48.97 51.21 51.52 50.99 51.13 47.91 47.52 46.73 46.10 47.21 47.19 46.42 47.18 46.92 45.92 45.54 45.51 44.99 45.29 45.78 46.05 45.69 46.33 44.77 43.42
43.30 43.31 43.60 43.79 43.61 44.66 45.75 45.47 45.80 46.08 47.13 46.84 46.36 46.36 46.80 47.54 45.13 44.98 45.47 50.07 50.82 50.41 45.77 45.25 45.33 46.27 46.37 46.78 46.18 45.92 46.23 45.78 46.44 47.64 45.80 46.34 45.80 46.42 47.09 46.04 46.34 44.97 44.54
43.14 43.56 44.37 44.18 44.32 45.17 45.02 44.95 45.30 46.06 46.19 45.83 44.88 45.32 45.37 45.87 44.52 44.86 46.88 48.41 45.80 45.48 45.84 46.13 46.20 46.27 46.61 46.22 47.80 47.43 47.25 47.85 49.15 48.77 48.93 49.03 48.57 49.41 48.65 47.47 47.34 46.84 48.50
42.19 42.90 43.92 45.07 44.43 43.74 43.35 43.54 43.87 44.03 43.81 43.81 44.13 44.24 44.52 44.95 43.93 44.58 46.01 46.48 46.10 46.01 46.24 46.43 45.83 44.88 44.14 42.27 45.85 47.36 47.62 48.30 47.71 46.55 46.08 44.68 43.17 43.68 46.17 48.68 45.47 44.31 42.40
42.11 42.94 43.83 44.27 43.48 42.91 43.12 43.17 43.51 44.03 43.69 43.55 43.07 44.19 43.94 44.01 42.35 43.42 45.77 46.32 45.16 47.15 48.84 48.56 44.79 43.35 40.22 40.21 44.22 44.75 44.70 46.70 47.34 47.08 48.17 47.54 47.08 47.77 46.27 48.06 45.71 43.24 41.25
42.68 43.11 43.16 43.36 43.51 43.44 43.53 43.34 43.37 43.12 43.03 42.80 43.90 45.78 46.55 44.79 44.58 41.44 42.94 48.39 47.38 47.01 46.15 45.64 45.15 40.31 39.68 39.79 40.90 46.54 45.45 45.74 46.08 45.50 45.54 46.37 46.93 47.10 47.20 48.66 47.53 45.03 41.97
42.63 42.44 42.79 43.17 43.45 43.45 43.41 45.18 45.97 46.17 45.35 45.47 46.79 46.39 46.75 47.71 41.26 40.65 39.78 41.02 44.71 46.37 45.41 45.93 44.78 39.52 39.77 39.81 43.67 39.81 40.30 43.82 46.31 44.06 44.66 44.44 44.57 45.11 46.01 47.78 47.58 48.25 47.48
43.09 42.83 43.71 44.44 46.09 47.00 46.86 46.13 45.02 45.59 44.73 44.47 44.39 44.57 45.07 46.42 47.13 40.86 39.41 40.33 41.71 45.52 45.78 42.25 40.57 39.86 40.61 43.23 40.90 40.99 43.40 45.10 44.73 44.61 44.09 44.34 45.05 45.89 47.15 47.67 47.77 47.51 45.96
43.62 44.36 45.81 45.79 46.25 46.47 45.74 45.30 44.54 43.88 43.98 44.25 44.17 44.41 45.07 45.37 45.59 46.30 46.28 46.26 42.96 45.79 45.41 45.87 43.46 42.55 41.35 43.56 45.45 45.67 46.73 45.89 45.05 44.36 44.13 44.84 46.48 46.11 45.89 44.65 42.66 44.21 43.01
45.14 45.03 45.00 44.80 44.77 44.47 44.59 41.87 42.63 42.42 40.24 43.56 43.71 43.44 43.92 42.87 40.64 38.29 41.40 44.62 45.19 42.17 45.57 46.03 44.78 44.04 43.78 44.01 44.51 44.74 44.73 44.08 42.29 43.30 43.69 43.88 43.64 43.25 42.77 43.01 43.11 42.08 39.71
43.60 43.24 42.50 43.35 43.60 43.51 43.94 43.04 37.68 37.35 36.70 36.00 36.18 39.35 41.46 37.11 36.71 36.24 35.69 35.71 36.60 38.10 44.53 43.68 42.90 43.05 42.56 42.92 42.98 43.12 43.57 42.25 42.70 42.29 42.95 43.00 41.68 41.37 40.87 41.50 42.27 41.21 39.24
44.11 43.68 43.58 42.50 43.25 43.19 43.44 43.44 43.77 40.53 37.37 36.28 35.93 35.56 35.27 34.67 35.48 36.00 36.23 35.81 35.45 39.46 42.48 41.99 41.43 41.66 41.80 42.55 42.90 43.07 42.59 43.59 44.94 42.90 41.82 41.80 41.42 41.66 40.73 39.95 40.13 40.26 39.57
44.69 38.51 43.69 43.43 43.37 43.38 43.68 43.66 43.36 42.26 41.50 41.53 37.64 36.53 35.14 35.17 34.99 35.23 35.94 39.63 41.61 40.95 41.18 40.53 40.34 40.82 40.87 40.83 41.12 41.17 42.02 42.28 42.72 43.15 42.11 41.07 41.27 40.31 39.74 39.29 39.61 39.26 39.42
44.52 44.50 44.21 44.13 43.34 42.23 43.55 43.41 43.47 43.09 42.40 42.17 42.66 39.79 38.76 35.89 35.66 35.74 36.70 41.25 40.05 39.96 40.64 40.64 40.74 40.75 40.79 41.37 41.28 41.40 41.77 41.16 41.44 42.58 42.97 40.67 40.54 40.19 39.13 39.42 39.60 37.40 37.00
45.75 38.70 40.12 44.40 44.35 43.93 43.32 42.90 42.60 42.16 41.49 40.75 39.92 39.93 41.71 41.00 40.92 40.64 40.93 40.94 40.92 40.99 41.66 41.41 41.54 41.70 41.52 41.35 41.32 41.18 41.24 41.27 41.33 42.29 41.54 39.74 39.57 40.00 39.37 39.39 39.51 38.78 38.85
47.47 46.82 36.90 45.07 44.28 43.83 43.28 42.50 42.60 42.13 41.12 40.55 39.72 37.31 30.52 40.70 40.07 40.21 40.27 40.37 40.63 40.94 41.25 41.69 41.98 41.78 41.12 40.83 40.73 40.73 41.01 41.12 41.06 41.80 40.46 39.55 39.31 39.29 40.05 39.69 39.91 39.53 39.24
47.82 46.84 45.58 44.99 44.96 44.33 43.79 44.05 43.65 42.96 42.42 41.96 42.00 40.17 32.57 41.82 41.22 41.16 41.68 42.04 42.35 42.28 41.63 40.74 39.98 40.21 40.68 40.21 39.81 40.02 40.44 40.35 40.64 41.98 40.34 39.57 39.31 39.50 39.68 39.30 38.65 39.07 38.32
47.06 46.50 46.01 45.93 45.48 40.33 44.78 44.32 43.78 43.43 42.98 42.68 42.68 42.02 41.72 41.99 42.15 42.26 42.34 42.75 43.05 43.23 43.31 42.43 40.56 38.93 39.40 40.39 40.62 40.67 40.19 39.98 40.64 42.11 40.07 39.11 38.93 39.19 39.55 39.14 38.96 38.78 37.68
47.13 46.47 45.72 45.84 46.04 45.73 45.23 44.50 44.05 38.81 42.88 43.26 43.11 42.55 42.39 42.70 42.72 42.64 42.81 43.29 43.65 43.79 43.67 43.42 41.91 39.45 39.79 40.46 40.89 41.36 41.16 39.24 41.01 41.02 39.98 39.22 39.24 38.94 39.33 38.88 38.89 39.22 38.43
47.56 47.04 46.65 46.45 45.94 46.09 45.53 45.78 44.95 44.61 44.27 44.01 43.57 43.18 43.40 43.83 43.53 43.10 43.37 43.48 43.27 43.34 43.10 43.47 42.88 40.69 39.55 39.92 39.70 39.71 34.06 30.79 36.39 32.75 40.87 39.78 39.73 39.14 38.96 38.99 38.91 38.79 39.61
47.81 46.99 46.69 47.13 46.76 46.18 46.08 45.96 45.69 45.25 44.69 44.94 44.63 44.50 43.99 44.16 44.22 44.05 43.85 43.46 43.22 43.18 43.12 43.14 43.20 42.54 40.00 39.44 36.98 31.89 30.73 31.07 34.55 31.73 40.81 40.37 39.08 39.11 38.13 38.67 38.75 38.40 39.58
MSLP
1022.84 1022.44 1022.02 1021.45 1020.94 1020.41 1019.93 1019.46 1018.87 1018.23 1017.58 1016.91 1016.21 1015.67 1015.13 1014.70 1014.47 1014.41 1014.38 1014.41 1014.60 1014.81 1014.97 1015.22 1015.19 1014.98 1014.79 1014.34 1013.67 1013.22 1013.15 1013.20 1012.80 1012.46 1012.60 1012.76 1012.74 1012.58 1012.25 1012.01 1011.75 1011.47 1011.18
1022.42 1022.00 1021.49 1021.00 1020.48 1019.93 1019.51 1019.07 1018.39 1017.76 1017.17 1016.49 1015.90 1015.35 1014.84 1014.53 1014.31 1014.09 1013.98 1014.21 1014.49 1014.61 1014.37 1014.71 1014.24 1014.44 1014.07 1013.69 1013.25 1012.90 1012.99 1012.87 1012.80 1012.54 1012.61 1012.65 1012.56 1012.49 1012.19 1011.88 1011.53 1011.19 1011.21
1022.36 1021.90 1021.41 1020.97 1020.53 1019.87 1019.33 1018.73 1017.85 1017.30 1016.69 1016.06 1015.36 1014.85 1014.44 1014.12 1014.01 1014.21 1014.31 1014.28 1014.18 1014.28 1014.11 1014.10 1013.88 1013.78 1013.61 1013.33 1013.27 1013.22 1013.03 1012.89 1012.75 1012.65 1012.60 1012.74 1012.54 1012.42 1012.14 1011.73 1011.36 1011.30 1011.00
1022.21 1021.72 1021.24 1020.83 1020.41 1019.86 1019.32 1018.45 1017.60 1016.99 1016.62 1016.28 1015.53 1014.74 1014.17 1013.96 1013.96 1014.17 1014.24 1014.24 1014.23 1014.09 1014.04 1013.83 1013.94 1013.90 1013.72 1013.88 1013.95 1013.90 1013.33 1013.05 1012.88 1012.76 1012.73 1012.68 1012.50 1012.28 1012.02 1011.44 1010.84 1010.86 1010.65
1021.91 1021.35 1021.00 1020.65 1020.15 1019.63 1019.04 1018.41 1017.72 1017.12 1016.68 1016.31 1015.90 1015.44 1014.96 1014.66 1014.55 1014.65 1014.58 1014.37 1014.26 1013.92 1013.72 1013.68 1013.97 1014.34 1014.34 1014.27 1014.24 1013.96 1013.55 1013.30 1012.96 1012.67 1012.59 1012.35 1012.24 1011.99 1011.89 1011.82 1011.57 1011.09 1010.71
1021.84 1021.27 1020.89 1020.47 1019.92 1019.34 1018.73 1018.18 1017.65 1017.22 1016.88 1016.57 1016.25 1015.85 1015.47 1015.04 1015.20 1015.09 1014.84 1014.17 1014.01 1013.93 1013.80 1014.40 1014.67 1014.75 1014.67 1014.56 1014.29 1014.21 1013.89 1013.46 1013.08 1012.54 1012.37 1012.35 1012.40 1012.31 1012.09 1011.92 1011.42 1010.97 1010.24
1021.84 1021.34 1020.87 1020.45 1019.96 1019.39 1018.89 1018.40 1017.94 1017.57 1017.09 1016.78 1016.54 1016.21 1015.77 1015.42 1015.17 1014.75 1014.64 1014.39 1014.18 1014.20 1014.81 1014.96 1015.04 1015.05 1015.03 1014.62 1014.58 1014.39 1014.22 1014.05 1013.78 1013.35 1012.79 1012.64 1012.52 1012.55 1012.25 1011.68 1011.25 1010.89 1010.27
1022.04 1021.46 1020.85 1020.39 1019.93 1019.45 1019.00 1018.63 1018.27 1017.95 1017.57 1017.36 1017.11 1016.73 1016.35 1015.93 1015.37 1014.84 1014.46 1014.64 1014.99 1015.30 1015.37 1015.50 1015.50 1015.41 1015.30 1015.12 1014.67 1014.26 1013.99 1013.79 1013.57 1013.33 1013.14 1012.93 1012.88 1012.65 1012.27 1011.78 1011.43 1010.88 1010.32
1022.46 1021.84 1021.17 1020.58 1020.16 1019.93 1019.61 1019.28 1018.97 1018.58 1018.25 1017.99 1017.71 1017.33 1016.86 1016.43 1015.83 1015.46 1015.45 1015.63 1015.72 1015.84 1015.83 1015.76 1015.74 1015.58 1015.25 1015.16 1014.88 1014.13 1013.65 1013.30 1013.35 1013.50 1013.43 1013.25 1013.06 1012.94 1012.53 1011.79 1011.15 1010.47 1010.26
1022.83 1022.32 1021.77 1021.26 1020.87 1020.54 1020.25 1019.90 1019.64 1019.27 1019.03 1018.70 1018.34 1018.00 1017.66 1017.37 1016.93 1016.66 1016.47 1016.37 1016.19 1015.94 1015.85 1015.70 1015.82 1015.72 1015.38 1014.94 1014.45 1013.97 1013.49 1013.09 1013.19 1013.22 1013.06 1012.91 1012.69 1012.32 1012.28 1012.04 1011.90 1011.26 1011.16
1023.28 1022.80 1022.31 1021.88 1021.49 1021.20 1020.86 1020.53 1020.23 1019.91 1019.50 1019.13 1018.73 1018.32 1018.03 1018.11 1017.82 1017.46 1017.20 1016.78 1016.45 1016.16 1015.89 1015.80 1016.01 1016.04 1015.67 1015.06 1014.51 1013.87 1013.50 1013.48 1013.38 1013.46 1013.14 1012.63 1012.25 1011.86 1011.76 1011.98 1011.91 1011.75 1011.49
1023.55 1023.15 1022.74 1022.40 1022.10 1021.70 1021.33 1020.91 1020.48 1020.07 1019.68 1019.32 1018.77 1018.21 1018.14 1018.20 1018.32 1018.01 1017.70 1017.37 1016.93 1016.27 1016.25 1016.36 1016.45 1016.10 1015.69 1015.24 1014.61 1014.27 1013.74 1013.47 1013.55 1013.62 1013.15 1012.59 1012.27 1012.03 1011.97 1012.00 1011.78 1011.63 1011.57
1023.73 1023.39 1023.07 1022.71 1022.22 1021.80 1021.43 1021.09 1020.67 1020.35 1020.07 1019.66 1019.13 1018.66 1018.49 1018.48 1018.35 1018.37 1018.06 1017.80 1017.45 1017.05 1017.08 1017.15 1016.71 1016.33 1015.85 1015.42 1015.35 1014.85 1014.36 1014.27 1013.79 1013.17 1012.83 1012.61 1012.58 1012.61 1012.45 1011.97 1011.85 1011.65 1011.54
1023.80 1023.65 1023.34 1023.03 1022.63 1022.37 1021.99 1021.79 1021.42 1021.35 1021.07 1020.68 1020.16 1019.74 1019.40 1019.15 1018.96 1018.57 1018.31 1018.07 1017.94 1017.61 1017.38 1017.23 1016.89 1016.45 1016.11 1015.70 1015.16 1014.87 1014.61 1014.46 1014.02 1013.72 1013.55 1013.25 1012.80 1012.48 1012.24 1012.48 1012.33 1011.80 1011.38
1024.28 1024.03 1023.69 1023.32 1023.05 1022.73 1022.75 1023.05 1022.68 1022.81 1022.62 1021.89 1021.43 1021.01 1020.50 1020.36 1020.77 1020.55 1019.41 1018.97 1018.70 1018.57 1017.67 1017.36 1016.92 1016.52 1016.19 1015.88 1015.56 1015.39 1015.26 1015.25 1015.17 1014.69 1014.01 1013.62 1013.36 1013.29 1013.03 1012.90 1012.59 1012.22 1012.14
1024.51 1024.27 1024.21 1023.67 1023.35 1023.21 1023.14 1023.56 1023.93 1023.81 1023.47 1023.23 1022.85 1022.16 1022.13 1022.28 1021.81 1020.98 1020.54 1020.02 1019.58 1018.96 1018.27 1017.77 1017.50 1017.23 1016.90 1016.56 1016.13 1015.71 1015.43 1015.58 1015.43 1015.15 1014.47 1014.15 1013.93 1013.70 1013.51 1013.20 1012.83 1012.53 1012.38
1025.00 1024.79 1024.45 1024.10 1023.72 1023.47 1023.35 1023.33 1023.68 1023.93 1023.75 1023.78 1023.63 1023.38 1023.12 1022.76 1022.27 1021.79 1021.20 1020.57 1020.19 1019.39 1018.90 1018.62 1018.37 1018.02 1017.65 1017.22 1016.77 1016.31 1015.82 1015.59 1015.19 1015.10 1015.07 1014.67 1014.39 1014.02 1013.72 1013.47 1013.15 1012.85 1012.47
1025.32 1025.33 1024.56 1024.33 1024.11 1023.82 1023.66 1023.45 1023.38 1023.42 1023.39 1023.55 1023.91 1023.83 1023.63 1023.33 1022.86 1022.29 1021.66 1020.93 1020.46 1020.24 1019.80 1019.47 1019.12 1018.75 1018.35 1017.86 1017.37 1016.89 1016.41 1016.00 1015.54 1015.05 1014.87 1015.04 1014.68 1014.42 1014.07 1013.74 1013.39 1013.04 1012.67
1025.30 1025.05 1024.84 1024.61 1024.49 1024.38 1024.04 1023.78 1023.54 1023.50 1023.46 1023.41 1023.39 1023.56 1023.50 1023.55 1023.22 1022.85 1022.23 1021.70 1021.34 1020.98 1020.53 1020.16 1019.90 1019.45 1018.99 1018.44 1017.92 1017.37 1016.91 1016.61 1016.14 1015.44 1014.99 1015.26 1015.04 1014.63 1014.32 1013.96 1013.61 1013.23 1012.93
1025.46 1025.55 1025.17 1024.70 1024.53 1024.38 1024.29 1024.01 1023.83 1023.79 1023.78 1023.84 1023.92 1023.93 1023.58 1023.27 1023.00 1022.82 1022.73 1022.43 1021.98 1021.63 1021.29 1020.83 1020.47 1020.02 1019.48 1018.99 1018.36 1017.77 1017.23 1016.70 1016.26 1015.76 1015.60 1015.80 1015.43 1014.95 1014.51 1014.11 1013.74 1013.31 1013.03
1025.18 1025.07 1025.30 1024.77 1024.63 1024.58 1024.56 1024.47 1024.31 1024.19 1024.18 1024.29 1024.53 1025.01 1024.80 1023.88 1023.66 1023.47 1023.21 1022.97 1022.68 1022.29 1021.97 1021.46 1020.88 1020.45 1020.01 1019.53 1019.00 1018.36 1017.74 1017.12 1016.66 1016.28 1016.26 1016.05 1015.66 1015.14 1014.65 1014.22 1013.82 1013.51 1013.25
1025.04 1024.94 1024.84 1024.65 1024.67 1024.65 1024.77 1024.72 1024.56 1024.44 1024.41 1024.40 1024.52 1024.87 1024.91 1024.32 1024.08 1023.88 1023.70 1023.46 1023.14 1022.86 1022.54 1022.03 1021.39 1020.94 1020.61 1020.23 1019.79 1019.10 1018.44 1017.80 1017.27 1016.80 1016.59 1016.25 1015.82 1015.23 1014.73 1014.31 1013.97 1013.68 1013.60
1024.89 1024.84 1024.75 1024.75 1024.85 1025.25 1024.87 1024.80 1024.69 1024.61 1024.59 1024.66 1024.69 1024.77 1024.79 1024.63 1024.52 1024.36 1024.19 1023.98 1023.67 1023.34 1022.98 1022.58 1022.09 1021.55 1021.29 1020.87 1020.39 1019.81 1019.24 1018.65 1017.90 1017.26 1017.02 1016.55 1015.97 1015.43 1014.87 1014.44 1014.14 1013.93 1013.95
1024.75 1024.70 1024.72 1024.75 1024.78 1024.78 1024.78 1024.77 1024.85 1025.20 1024.89 1024.85 1024.94 1025.01 1025.04 1024.99 1024.90 1024.83 1024.60 1024.37 1024.05 1023.76 1023.48 1023.09 1022.74 1022.37 1021.94 1021.39 1020.83 1020.24 1019.96 1019.72 1018.58 1017.91 1017.51 1016.97 1016.28 1015.66 1015.15 1014.70 1014.37 1014.16 1014.22
1024.58 1024.61 1024.62 1024.65 1024.67 1024.75 1024.83 1024.84 1024.84 1024.90 1024.91 1024.98 1025.06 1025.13 1025.14 1025.10 1025.05 1024.96 1024.81 1024.60 1024.38 1024.07 1023.87 1023.59 1023.31 1022.92 1022.45 1022.06 1021.67 1021.14 1020.97 1020.36 1019.46 1018.77 1017.68 1017.27 1016.66 1016.06 1015.52 1015.07 1014.70 1014.47 1014.39
1024.58 1024.64 1024.64 1024.66 1024.71 1024.79 1024.84 1024.82 1024.86 1024.90 1024.89 1025.02 1025.15 1025.20 1025.19 1025.13 1025.12 1024.99 1024.86 1024.73 1024.51 1024.37 1024.26 1024.06 1023.82 1023.47 1022.99 1022.55 1022.44 1022.00 1021.37 1020.64 1019.78 1018.99 1018.00 1017.55 1017.08 1016.53 1016.04 1015.56 1015.17 1014.90 1014.77
Wind_Speed
13 13 14 13 14 13 12 13 13 13 13 13 13 13 13 9 8 7 7 5 6 4 2 4 6 5 5 7 9 9 9 8 9 4 0 1 3 4 3 4 3 3 3
15 15 15 15 15 15 14 15 13 13 13 13 13 12 11 10 9 8 6 5 3 5 4 4 6 7 7 11 8 9 8 6 4 7 1 2 2 5 4 4 3 3 3
15 15 14 14 14 15 14 15 14 12 11 13 11 11 10 10 4 2 2 1 2 5 7 9 10 9 12 8 7 7 6 5 4 3 2 1 1 3 4 4 3 3 2
13 12 12 11 12 13 13 14 13 12 11 10 13 13 7 7 2 3 4 6 7 7 7 9 8 8 7 7 5 5 4 5 3 2 2 2 2 2 4 6 5 4 5
12 11 9 10 12 12 12 12 12 9 8 7 9 9 10 8 6 7 5 5 8 9 9 8 4 8 12 9 4 5 5 3 2 3 2 1 3 4 7 5 5 6 4
12 12 10 10 11 11 11 11 9 9 9 9 9 9 9 7 10 11 9 8 8 7 6 9 6 10 10 9 5 3 5 5 3 4 3 6 5 5 5 5 5 4 6
12 11 10 9 10 11 10 10 10 10 10 10 10 10 10 9 13 10 8 5 5 6 9 6 6 5 6 5 4 3 0 2 6 5 4 5 6 7 7 8 6 6 6
11 11 10 9 10 10 10 9 9 8 10 9 9 10 9 8 12 9 6 10 12 9 7 5 4 4 3 6 6 5 4 4 2 3 3 4 4 6 7 5 6 7 0
10 11 11 11 8 9 10 11 9 8 8 8 7 9 9 10 17 15 14 10 9 9 5 4 3 3 8 8 8 8 8 5 4 5 4 4 5 5 8 7 5 6 6
10 10 10 9 9 10 10 9 7 7 8 6 8 8 13 11 17 14 9 6 6 5 4 5 5 8 9 8 6 8 8 4 2 3 2 0 3 2 5 5 5 5 5
9 9 9 10 9 9 8 7 7 6 5 6 6 7 9 10 10 10 9 6 5 5 5 6 8 8 7 8 6 5 6 4 4 3 4 5 5 5 6 3 2 3 4
8 8 9 9 7 6 6 7 9 7 8 8 8 7 7 7 11 11 9 7 5 7 8 7 8 10 10 14 11 9 6 6 6 2 4 5 7 7 8 5 1 3 2
8 9 9 8 9 9 9 10 8 8 8 8 7 8 8 7 7 8 13 11 12 9 8 7 7 9 8 10 14 15 12 7 4 6 7 7 7 6 7 6 7 7 1
10 10 9 9 8 8 7 8 8 8 8 7 8 8 7 8 8 7 7 6 5 6 5 8 8 7 7 7 8 8 9 9 9 10 9 7 7 8 7 7 4 6 6
9 8 8 7 8 7 8 9 7 9 6 6 7 7 7 7 8 8 11 7 7 5 5 8 9 10 10 10 9 10 10 10 9 8 8 8 7 6 7 6 5 4 5
8 7 7 6 6 6 6 7 11 11 15 15 14 10 8 8 5 13 13 13 11 10 8 9 9 9 9 9 9 9 8 8 8 8 8 8 7 6 6 5 5 5 4
7 6 5 5 5 5 5 6 5 5 13 15 12 15 14 11 12 11 10 11 14 9 9 9 9 9 9 9 9 9 10 9 8 8 8 8 7 7 7 5 6 5 4
5 4 5 5 4 4 5 5 5 6 6 7 11 13 14 13 14 14 12 6 9 9 9 9 9 9 9 9 9 9 9 9 9 9 8 8 7 7 6 6 6 6 6
5 6 5 4 5 4 5 5 5 6 6 7 7 7 7 6 8 10 9 9 9 9 8 9 8 9 9 9 9 9 10 10 9 9 9 8 7 6 6 6 6 6 6
3 4 3 4 4 5 5 6 6 7 7 8 8 8 7 5 8 9 9 8 8 8 8 8 8 8 9 9 10 10 10 10 10 10 10 8 7 6 6 6 5 6 5
2 3 3 4 4 5 5 6 6 6 6 7 7 7 7 6 7 8 7 8 8 8 8 9 8 9 9 10 10 10 11 11 11 11 9 8 7 7 6 6 6 5 4
1 2 3 3 3 4 4 4 5 5 6 6 5 6 5 6 7 7 8 8 8 8 8 9 9 9 9 9 10 10 11 12 12 11 9 8 7 7 6 6 5 5 4
2 1 1 2 2 2 2 4 4 5 5 5 6 6 6 6 6 7 7 7 8 8 8 9 10 10 10 9 9 9 10 12 12 11 9 8 7 7 7 6 5 3 4
3 2 2 2 2 2 2 3 4 4 4 5 5 5 5 5 5 6 6 7 7 8 9 9 10 13 11 11 9 9 9 10 11 9 11 8 8 8 7 6 5 5 4
1 0 1 1 2 2 2 2 3 3 4 4 4 4 4 4 4 5 5 5 6 7 9 9 10 13 14 16 15 15 12 12 12 11 7 9 10 11 8 6 6 4 4
2 2 1 1 1 0 1 1 2 2 3 2 3 3 3 3 3 4 4 5 6 7 8 8 11 15 16 13 14 13 12 12 13 12 9 8 9 9 8 8 10 5 5
Wind_Direction
326 328 322 320 318 316 314 313 306 305 307 307 307 307 301 298 289 269 264 260 261 251 314 355 293 276 276 269 282 284 273 271 266 276 196 295 282 311 333 330 333 356 354
332 328 325 326 328 325 321 317 313 310 311 302 301 296 289 287 302 290 289 259 211 249 265 263 275 274 278 279 286 284 268 268 285 296 336 343 309 335 326 318 346 9 354
327 322 320 321 319 322 320 315 317 313 317 334 318 298 291 285 271 97 111 159 224 261 278 286 294 292 291 301 311 317 318 305 288 284 337 275 286 337 331 313 320 290 276
318 313 313 315 314 320 317 314 325 323 332 328 341 349 308 287 225 50 327 318 313 290 282 294 312 295 331 354 350 329 320 294 351 2 355 337 328 322 315 335 348 356 321
327 326 322 319 320 322 320 324 323 331 335 341 348 348 356 351 4 341 317 298 284 300 295 289 27 56 47 40 24 357 349 343 25 28 346 348 360 354 349 337 303 313 297
336 342 339 334 332 333 338 343 352 358 1 1 1 354 350 343 1 340 329 300 294 301 316 68 59 51 38 10 35 52 26 350 24 1 25 15 12 354 345 316 320 319 342
347 347 343 339 340 346 353 357 360 3 359 7 3 356 356 354 338 321 303 285 306 17 79 77 70 42 15 16 28 324 218 27 21 4 9 20 3 355 334 325 352 331 330
345 340 334 332 343 355 355 354 3 8 12 17 12 13 8 4 357 7 45 73 80 78 76 68 66 43 16 332 325 331 316 304 289 315 335 338 315 335 321 314 319 306 160
351 351 354 11 2 16 19 20 18 19 26 28 25 20 20 29 33 52 75 76 72 67 66 63 28 320 303 314 289 282 300 298 212 268 279 305 332 312 306 320 348 332 359
356 356 3 12 21 27 21 20 19 25 33 31 31 29 31 35 27 47 62 74 89 99 53 14 25 3 341 329 286 279 284 297 336 335 3 328 273 13 294 23 328 353 348
1 13 21 20 26 24 27 28 28 26 19 11 22 36 46 44 50 24 28 66 36 35 41 42 33 10 0 2 338 347 312 343 91 44 345 356 349 2 3 22 72 324 338
20 26 31 30 26 19 29 43 42 33 33 23 35 45 45 36 36 28 13 13 12 60 47 47 44 20 21 26 33 2 59 157 70 33 352 6 358 2 358 346 10 327 27
41 46 47 49 63 59 46 34 35 32 28 22 23 31 32 32 43 45 52 44 37 64 56 43 20 21 19 49 32 21 32 37 23 4 359 1 357 348 341 358 25 0 263
69 64 60 55 46 37 33 26 23 22 19 25 38 40 47 46 34 40 51 69 80 60 64 51 30 43 48 35 32 36 36 26 11 11 3 347 346 352 5 20 351 338 355
59 43 35 29 23 25 40 24 21 32 5 10 34 27 23 44 29 6 36 33 37 25 29 41 36 37 37 34 33 34 30 18 10 350 351 356 360 357 357 357 341 342 357
51 38 25 25 26 40 61 67 49 50 52 46 37 28 72 40 22 47 42 40 21 1 45 35 34 28 26 21 20 18 32 22 1 357 358 355 354 353 350 343 337 342 347
40 24 23 25 34 33 42 54 66 89 78 53 43 43 42 34 32 24 10 55 32 14 41 34 28 22 18 15 9 6 6 5 4 9 0 355 352 346 353 347 343 344 338
32 5 10 27 38 43 38 44 46 46 39 42 60 47 35 31 36 27 6 39 45 38 34 27 21 16 14 11 9 7 1 2 357 354 11 354 350 351 346 344 343 342 337
21 18 18 42 45 35 35 38 37 39 36 38 40 60 39 36 44 37 14 42 34 30 23 26 19 16 12 7 4 2 359 2 354 354 5 3 344 347 342 334 331 334 337
15 23 12 47 48 44 40 37 40 42 44 42 38 26 22 32 39 38 38 31 29 25 18 15 11 7 3 2 1 1 1 2 1 358 6 2 341 341 340 334 336 334 349
352 44 31 69 53 48 46 45 44 46 49 49 49 38 333 25 35 32 27 23 18 12 8 360 3 2 3 1 359 359 360 1 1 360 5 349 340 340 340 337 338 340 9
71 62 68 55 56 54 53 45 43 46 46 47 50 58 322 36 33 30 27 24 21 18 13 7 8 7 2 359 357 356 357 359 358 356 357 344 336 337 335 339 343 357 45
138 147 127 52 35 95 65 48 47 48 48 44 39 38 29 33 34 34 34 29 25 20 17 16 12 11 9 2 1 357 358 356 349 357 345 336 335 341 340 348 353 7 47
228 234 286 340 47 104 65 60 71 49 25 39 39 40 36 39 40 42 34 29 26 26 21 19 17 17 10 8 6 2 8 353 345 355 350 338 339 345 347 350 356 13 89
245 257 285 118 133 82 113 43 36 32 33 32 37 41 41 42 43 36 28 24 24 22 24 18 18 16 16 15 12 6 358 333 340 332 355 348 350 358 353 359 5 12 62
102 96 99 117 88 23 338 335 351 360 7 23 28 31 25 31 33 25 23 24 22 25 19 20 17 18 15 18 8 350 343 343 348 336 354 1 0 5 359 6 13 17 42